Tel Aviv, Israel

8:12 AM IDT on April 30, 2017 (GMT +0300)
Ben Gurion

Weather History for LLBG - January, 2015

Change the Weather History Date:

Thursday, January 1, 2015

  Actual Average Record
Temperature  
Mean Temperature 60 °F -  
Max Temperature 69 °F 61 °F 77 °F (2000)
Min Temperature 51 °F 47 °F 43 °F (2014)
Degree Days  
Heating Degree Days 5    
Growing Degree Days 10 (Base 50)    
Moisture  
Dew Point 46 °F    
Average Humidity 64    
Maximum Humidity 82    
Minimum Humidity 35    
Precipitation  
Precipitation 0.00 in - - ()
Sea Level Pressure  
Sea Level Pressure 30.11 in    
Wind  
Wind Speed 5 mph ()    
Max Wind Speed 16 mph    
Max Gust Speed -    
Visibility 5.6 miles    
Events Rain    
Averages and records for this station are not official NWS values.
T = Trace of Precipitation, MM = Missing Value Source: Averaged Metar Reports

Daily Weather History Graph

Daily Weather History Graph

Search for Another Location

Airport or City:

Trip Planner

Search our weather history database for the weather conditions in past years. The results will help you decide how hot, cold, wet, or windy it might be!

Date:

Astronomy

Jan. 01, 2015 Rise Set
Actual Time 6:40 AM IST 4:46 PM IST
Civil Twilight 6:13 AM IST 5:13 PM IST
Nautical Twilight 5:43 AM IST 5:44 PM IST
Astronomical Twilight 5:13 AM IST 6:13 PM IST
Moon 1:58 PM IST (1/1) 2:55 AM IST (1/1)
Length of Visible Light 10h 59m
Length of Day
10h 05m
Waxing Gibbous, 86% of the Moon is Illuminated
Jan 1
Waxing Gibbous
Jan 5
Full
Jan 13
Last Quarter
Jan 20
New
Jan 27
First Quarter

Hourly Weather History & Observations

Time (IST) Temp. Dew Point Humidity Pressure Visibility Wind Dir Wind Speed Gust Speed Precip Events Conditions
12:20 AM 55.4 °F 44.6 °F 67% 30.04 in - Variable 2.3 mph - N/A   Clear
12:50 AM 53.6 °F 44.6 °F 72% 30.04 in - Variable 1.2 mph - N/A   Clear
1:20 AM 53.6 °F 44.6 °F 72% 30.01 in - Variable 3.5 mph - N/A   Clear
1:50 AM 53.6 °F 44.6 °F 72% 30.01 in - Variable 2.3 mph - N/A   Clear
2:00 AM 54 °F 45 °F 63% 30.02 in 6 mi 2.3 mph - -   Partly Cloudy
2:20 AM 55.4 °F 46.4 °F 72% 30.01 in - East 5.8 mph - N/A   Clear
2:50 AM 53.6 °F 44.6 °F 72% 30.01 in - Variable 1.2 mph - N/A   Clear
3:20 AM 53.6 °F 46.4 °F 77% 30.01 in - Variable 2.3 mph - N/A   Clear
3:50 AM 53.6 °F 44.6 °F 72% 30.01 in - Variable 1.2 mph - N/A   Clear
4:20 AM 51.8 °F 44.6 °F 76% 30.01 in - Variable 1.2 mph - N/A   Clear
4:50 AM 51.8 °F 46.4 °F 82% 30.01 in - Variable 1.2 mph - N/A   Clear
5:00 AM 51 °F 46 °F 75% 30.03 in 6 mi 1.2 mph - -   Mostly Cloudy
5:20 AM 53.6 °F 46.4 °F 77% 30.01 in - Variable 3.5 mph - N/A   Clear
5:50 AM 53.6 °F 46.4 °F 77% 30.04 in - ESE 5.8 mph - N/A   Clear
6:20 AM 55.4 °F 42.8 °F 63% 30.01 in - Variable 3.5 mph - N/A   Clear
6:50 AM 53.6 °F 42.8 °F 67% 30.04 in - Variable 1.2 mph - N/A   Clear
7:20 AM 53.6 °F 42.8 °F 67% 30.04 in - Variable 3.5 mph - N/A   Clear
7:50 AM 53.6 °F 46.4 °F 77% 30.06 in - Variable 3.5 mph - N/A   Clear
8:00 AM 53 °F 45 °F 67% 30.07 in 6 mi 3.5 mph - -   Mostly Cloudy
8:20 AM 57.2 °F 44.6 °F 63% 30.09 in - Variable 3.5 mph - N/A   Clear
8:50 AM 59.0 °F 42.8 °F 55% 30.09 in - ESE 6.9 mph - N/A   Clear
9:20 AM 60.8 °F 46.4 °F 59% 30.12 in - Variable 3.5 mph - N/A   Clear
9:50 AM 62.6 °F 44.6 °F 52% 30.12 in - South 6.9 mph - N/A   Clear
10:20 AM 64.4 °F 44.6 °F 49% 30.12 in - South 6.9 mph - N/A   Clear
10:50 AM 64.4 °F 44.6 °F 49% 30.09 in - South 9.2 mph - N/A   Clear
11:00 AM 65 °F 44 °F 35% 30.12 in 6 mi SSE 9.2 mph - -   Scattered Clouds
11:20 AM 66.2 °F 44.6 °F 46% 30.09 in - South 9.2 mph - N/A   Clear
11:50 AM 68.0 °F 48.2 °F 49% 30.09 in 6.2 mi South 8.1 mph - N/A   Partly Cloudy
12:20 PM 69.8 °F 51.8 °F 53% 30.09 in 6.2 mi SSW 8.1 mph - N/A   Partly Cloudy
12:50 PM 68.0 °F 53.6 °F 60% 30.06 in 6.2 mi South 8.1 mph - N/A   Partly Cloudy
1:20 PM 66.2 °F 55.4 °F 68% 30.09 in 6.2 mi West 15.0 mph - N/A   Mostly Cloudy
1:50 PM 66.2 °F 53.6 °F 64% 30.09 in 6.2 mi West 16.1 mph - N/A   Mostly Cloudy
2:00 PM 65 °F 53 °F 57% 30.10 in 6 mi West 15.0 mph - - Rain Light Rain
2:20 PM 64.4 °F 53.6 °F 68% 30.09 in 6.2 mi West 13.8 mph - N/A   Overcast
2:50 PM 64.4 °F 51.8 °F 64% 30.09 in 6.2 mi West 15.0 mph - N/A   Mostly Cloudy
3:20 PM 64.4 °F 50.0 °F 59% 30.12 in 6.2 mi West 13.8 mph - N/A   Mostly Cloudy
3:50 PM 64.4 °F 50.0 °F 59% 30.12 in 5.0 mi West 16.1 mph - N/A   Mostly Cloudy
4:20 PM 62.6 °F 48.2 °F 59% 30.12 in 4.3 mi WSW 9.2 mph - N/A   Mostly Cloudy
4:50 PM 60.8 °F 50.0 °F 68% 30.15 in 3.1 mi WSW 9.2 mph - N/A   Haze
5:00 PM 61 °F 49 °F 56% 30.16 in 3 mi WSW 9.2 mph - -   Haze
5:20 PM 59.0 °F 46.4 °F 63% 30.15 in 3.1 mi SW 5.8 mph - N/A   Haze
5:50 PM 59.0 °F 46.4 °F 63% 30.18 in 3.1 mi Variable 3.5 mph - N/A   Haze
6:20 PM 57.2 °F 46.4 °F 67% 30.18 in 5.0 mi SSW 6.9 mph - N/A   Unknown
6:50 PM 57.2 °F 44.6 °F 63% 30.18 in 5.0 mi SSW 6.9 mph - N/A   Unknown
7:20 PM 57.2 °F 44.6 °F 63% 30.18 in - South 6.9 mph - N/A   Clear
7:50 PM 55.4 °F 44.6 °F 67% 30.18 in - South 6.9 mph - N/A   Clear
8:00 PM 55 °F 44 °F 58% 30.22 in 6 mi South 6.9 mph - -   Clear
8:20 PM 53.6 °F 44.6 °F 72% 30.21 in - South 6.9 mph - N/A   Clear
8:50 PM 53.6 °F 44.6 °F 72% 30.21 in 6.2 mi South 5.8 mph - N/A   Partly Cloudy
9:20 PM 53.6 °F 42.8 °F 67% 30.21 in 6.2 mi South 8.1 mph - N/A   Partly Cloudy
9:50 PM 53.6 °F 41.0 °F 62% 30.21 in 6.2 mi South 8.1 mph - N/A   Partly Cloudy
10:20 PM 53.6 °F 39.2 °F 58% 30.24 in 6.2 mi South 6.9 mph - N/A   Partly Cloudy
10:50 PM 51.8 °F 39.2 °F 62% 30.21 in 6.2 mi South 8.1 mph - N/A   Partly Cloudy
11:00 PM 53 °F 39 °F 48% 30.24 in 6 mi South 6.9 mph - -   Scattered Clouds
11:20 PM 51.8 °F 39.2 °F 62% 30.21 in 6.2 mi South 8.1 mph - N/A   Scattered Clouds
11:50 PM 51.8 °F 41.0 °F 67% 30.21 in 6.2 mi South 8.1 mph - N/A   Scattered Clouds